EA1FBX Weather Reports


Display with metric or nautical units.
time (UTC)temp
F
wind
direction
speed
MPH
gust
MPH
rain 1hr
in
rain 24hr
in
rain mn
in
humidity
%
barometer
mb
20200401091131 44 0 0.0 0.0 0.00 0.07 0.04 86 998.9
20200401085633 43 90 0.0 0.0 0.00 0.07 0.04 87 998.9
20200401084134 43 181 0.0 0.0 0.00 0.07 0.04 90 998.9
20200401082631 42 0 0.0 0.0 0.00 0.07 0.04 91 998.7
20200401075632 41 0 0.0 0.0 0.00 0.07 0.04 93 998.5
20200401074134 41 0 0.0 0.0 0.00 0.07 0.04 94 998.4
20200401071133 40 0 0.0 0.0 0.00 0.07 0.04 95 998.3
20200401065634 40 0 0.0 0.0 0.00 0.07 0.04 95 998.2
20200401064137 39 0 0.0 0.0 0.00 0.07 0.04 95 997.9
20200401062631 40 0 0.0 0.0 0.00 0.07 0.04 94 997.7
20200401061133 40 0 0.0 0.0 0.00 0.07 0.04 95 997.6
20200401055633 40 0 0.0 0.0 0.00 0.07 0.04 96 997.6
20200401054136 39 0 0.0 0.0 0.00 0.07 0.04 96 997.6
20200401051133 40 0 0.0 0.0 0.00 0.07 0.04 96 997.3
20200401045632 40 0 0.0 0.0 0.00 0.07 0.04 96 997.2
20200401044134 40 0 0.0 0.0 0.00 0.07 0.04 96 997.4
20200401042631 40 0 0.0 0.0 0.00 0.07 0.04 96 997.4
20200401035632 39 0 0.0 0.0 0.01 0.07 0.04 97 997.5
20200401034134 39 0 0.0 0.0 0.02 0.07 0.04 97 997.2
20200401032631 39 0 0.0 0.0 0.02 0.07 0.04 96 997.3
20200401031131 39 0 0.0 0.0 0.01 0.05 0.03 96 997.4
20200401025632 39 0 0.0 0.0 0.01 0.05 0.03 96 997.5
20200401024134 39 0 0.0 0.0 0.00 0.04 0.02 96 997.4
20200401015632 39 0 0.0 0.0 0.00 0.04 0.02 97 997.4
20200401014134 39 0 0.0 0.0 0.00 0.04 0.02 97 997.5
20200401012631 39 0 0.0 0.0 0.00 0.04 0.02 97 997.3
20200401011131 39 112 0.0 0.0 0.00 0.04 0.02 97 997.4
20200401004134 38 0 0.0 0.0 0.01 0.04 0.02 100 997.3
20200401002631 38 135 0.0 0.0 0.02 0.04 0.02 97 997.1
20200331235632 38 112 0.0 0.0 0.01 0.03 0.01 97 997.2
20200331232631 38 0 0.0 0.0 0.00 0.02 0.00 97 997.4
20200331231131 38 0 0.0 0.0 0.00 0.02 0.00 96 997.2
20200331222958 38 135 0.0 0.0 0.00 0.02 0.00 96 997.5
20200331222631 38 135 0.0 0.0 0.00 0.02 0.00 96 997.5
20200331221131 38 0 0.0 0.0 0.00 0.02 0.00 96 997.3
20200331214134 38 0 0.0 0.0 0.00 0.02 0.00 96 997.1
20200331211131 37 0 0.0 0.0 0.00 0.02 0.02 95 997.1
20200331204134 37 135 0.0 0.0 0.00 0.02 0.02 94 996.8
20200331194134 38 135 0.0 0.0 0.00 0.02 0.02 92 996.4
20200331185632 38 135 0.0 0.0 0.01 0.02 0.02 92 996.1
20200331162631 39 112 0.0 0.0 0.01 0.01 0.01 89 995.5
20200331154133 39 135 0.0 0.0 0.00 0.00 0.00 88 995.2
20200331152632 39 0 0.0 0.0 0.00 0.00 0.00 87 995.2
20200331151132 40 57 0.0 0.0 0.00 0.00 0.00 86 995.1
20200331145632 40 90 0.0 0.0 0.00 0.00 0.00 85 995.1
20200331134135 39 0 0.0 0.0 0.00 0.00 0.00 86 995.2
20200331132632 39 0 0.0 0.0 0.00 0.00 0.00 86 995.3
20200331131132 38 45 0.0 0.0 0.00 0.00 0.00 86 995.5
20200331125631 37 135 0.0 0.0 0.00 0.00 0.00 82 995.5
20200331124135 37 0 0.0 0.0 0.00 0.00 0.00 82 995.6
20200331114134 37 68 0.0 0.0 0.00 0.00 0.00 76 995.6
20200331104134 36 0 0.0 0.0 0.00 0.00 0.00 72 995.8
20200331102632 35 0 0.0 0.0 0.00 0.00 0.00 74 995.7
20200331095631 35 45 0.0 0.0 0.00 0.00 0.00 74 995.8